Regional Weather Roundup
Issued by NWS

Home | Current Version | Previous Version | Text Only | Print | Product List | Glossary On
Versions: 1 2 3 4 5 6 7 8 9 10 11 12 13 14 15 16 17 18 19 20 21 22 23 24 25 26 27 28 29 30 31 32 33 34 35 36 37 38 39 40 41 42 43 44 45 46 47 48 49 50
191
ASUS43 KDTX 141101
RWRMI
MICHIGAN HOURLY REGIONAL WEATHER ROUNDUP
NATIONAL WEATHER SERVICE DETROIT/PONTIAC MI
700 AM EDT MON OCT 14 2019

NOTE: "FAIR" INDICATES FEW OR NO CLOUDS BELOW 12,000 FEET WITH NO
SIGNIFICANT WEATHER AND/OR OBSTRUCTION TO VISIBILITY.

MIZ047>049-052>055-059>063-066>070-074>076-081>083-141200-
SOUTHEAST LOWER MICHIGAN

CITY           SKY/WX    TMP DP  RH WIND       PRES   REMARKS
ADRIAN         MOCLDY    43  33  68 W5        29.99R
ALMA           FAIR      37  34  87 MISG      29.94S
ANN ARBOR      CLOUDY    40  36  86 SW5       29.96R
BAD AXE        FAIR      35  33  92 SW6       29.91S WCI  30
CARO           FAIR      37  33  88 SW5       29.93R WCI  33
DETROIT CITY   CLOUDY    47  35  63 W6        29.96R
DETROIT        CLOUDY    44  36  73 SW9       29.97R
FLINT          CLOUDY    44  33  65 W8        29.95R
GROSSE ILE     MOCLDY    44  36  72 W8        29.96S
HILLSDALE      FAIR      40  33  75 SW5       29.96R
HOWELL         CLOUDY    44  37  75 CALM      29.95R

CITY           SKY/WX    TMP DP  RH WIND       PRES   REMARKS
JACKSON        CLOUDY    42  34  73 SW7       29.96R
LAMBERTVILLE   CLOUDY    48  35  61 CALM      29.98R
LANSING        CLOUDY    43  34  70 W5        29.96R
LAPEER         CLOUDY    43  35  73 W3        29.95R
MASON          CLOUDY    43  35  72 CALM      29.96R
MONROE         CLOUDY    45  35  66 W7        29.97R
MT. CLEMENS    CLOUDY    45  36  70 W3        29.94R
PONTIAC        CLOUDY    43  33  68 W6        29.94R
PORT HOPE        N/A     38  33  82 SW5       29.89R WCI  34
PORT HURON     CLOUDY    43  36  75 CALM      29.95R
TRI CITIES     FAIR      37  32  82 SW7       29.94R WCI  32
MIDLAND        FAIR      35  32  88 CALM      29.92S
TROY           CLOUDY    47  34  60 W3        29.97R
SAGINAW HB     FAIR      37  34  87 SW5       29.93S WCI  34
$$
MIZ043>046-050>051-056>058-064>065-071>073-077>080-141200-
SOUTHWEST LOWER MICHIGAN

CITY           SKY/WX    TMP DP  RH WIND       PRES   REMARKS
BATTLE CREEK   CLOUDY    42  35  76 SW7       29.97R
BENTON HARBOR  CLOUDY    45  33  63 W12       29.99R
BIG RAPIDS     MOCLDY    38  35  89 W3        29.92R
COLDWATER      FAIR      40  32  70 SW7       29.98R
FREMONT        FAIR      35  34  94 SW3       29.94R
HOLLAND        CLOUDY    45  33  63 W6G17     29.96R
GRAND RAPIDS   CLOUDY    44  33  65 W5        29.95R
IONIA          CLOUDY    43  35  72 W5        29.94R
KALAMAZOO      CLOUDY    44  32  62 SW8       29.97R
LUDINGTON      MOCLDY    42  35  75 NW6       29.92R
MARSHALL       CLOUDY    42  35  74 SW6       29.96R
MUSKEGON       MOCLDY    44  32  62 W10       29.95R
SOUTH HAVEN    FAIR      45  31  58 W9        29.98R
$$
MIZ016>042-141200-
NORTHERN LOWER MICHIGAN

CITY           SKY/WX    TMP DP  RH WIND       PRES   REMARKS
ALPENA         CLOUDY    35  33  92 SW3       29.86R
BEAVER ISLAND  FAIR      41  34  76 W12G17    29.84R
BELLAIRE       MOCLDY    42  36  80 CALM      29.87R
CADILLAC       FAIR      35  33  91 SW6       29.87R WCI  30
CHARLEVOIX     MOCLDY    44  34  69 W13G22    29.87R
FRANKFORT      MOCLDY    45  34  64 W8G16     29.89R
GAYLORD        LGT RAIN  33  33 100 W5        29.84R FOG     WCI  29
GRAYLING       FAIR      35  34  97 SW6       29.85R WCI  30
HARBOR SPRINGS CLOUDY    42  37  82 NW7       29.83R
HOUGHTON LAKE  FAIR      38  34  85 W9        29.88R WCI  31
MANISTEE       MOCLDY    42  35  76 W13       29.91R
OSCODA         FAIR      33  33  98 SW8       29.88R WCI  26
PELLSTON       FAIR      29  28  96 E3        29.83R
ROGERS CITY    CLOUDY    36  34  93 SW8       29.84R WCI  29
TRAVERSE CITY  MOCLDY    39  33  79 SW7       29.87R WCI  34
$$
MIZ007>008-015-141200-
EASTERN UPPER MICHIGAN

CITY           SKY/WX    TMP DP  RH WIND       PRES   REMARKS
KINROSS        CLOUDY    33  32  96 W9        29.80R WCI  25
MACKINAC ISLAN FAIR      40  40  99 W12G18    29.81R WCI  33
S. S. MARIE    CLOUDY    37  35  92 W6        29.78R WCI  32
MUNISING         N/A     34  31  88 SW8       29.81R WCI  27
$$
MIZ004>006-011>014-085-141200-
CENTRAL UPPER MICHIGAN

CITY           SKY/WX    TMP DP  RH WIND       PRES   REMARKS
MANISTIQUE     FAIR      33  32  96 W8        29.83R WCI  27
ESCANABA       FAIR      29  28  96 W5        29.87R WCI  24
MENOMINEE      FAIR      31  30  96 W5        29.90R WCI  26
SAWYER-GWINN   CLEAR     32  30  93 W5        29.81R WCI  27
$$
MIZ001>003-009>011-084-141200-
WESTERN UPPER MICHIGAN

CITY           SKY/WX    TMP DP  RH WIND       PRES   REMARKS
IRON MOUNTAIN  FAIR      33  29  85 W6        29.85R WCI  28
HOUGHTON       CLOUDY    37  32  82 W12       29.78R WCI  29
COPPER HARBOR    N/A     41  35  79 N14G23    29.77R
IRONWOOD       CLOUDY    32  31  96 W10       29.88R WCI  24
$$

ABBREVIATIONS USED IN REMARKS
   TC - TEMPERATURE IN CELSIUS
  WCI - WIND CHILL INDEX
   HX - HEAT INDEX
  VSB - VISIBILITY





USA.gov is the U.S. government's official web portal to all federal, state and local government web resources and services.